Location: Unspecified
(42.9300°N, 71.1866°W)
Time: 12:28:24
(UTC-04:00)

Okean 3 - Visible Passes

Search period start: 29 August 2016 00:00
Search period end: 08 September 2016 00:00
Orbit: 577 x 604 km, 82.5° (Epoch: 29 August)

Date Brightness Start Highest point End Pass type
(mag) Time Alt. Az. Time Alt. Az. Time Alt. Az.
02 Sep 6.5 04:39:07 10° ESE 04:41:34 15° E 04:43:59 10° NE visible
03 Sep 6.0 04:46:35 10° SE 04:49:52 22° E 04:53:08 10° NE visible
04 Sep 5.3 04:54:25 10° SSE 04:58:13 33° E 05:01:59 10° NNE visible
05 Sep 4.4 05:02:30 10° SSE 05:06:35 50° E 05:10:40 10° NNE visible
06 Sep 3.6 05:10:47 10° S 05:15:00 78° E 05:19:13 10° N visible
07 Sep 3.4 05:19:16 10° SSW 05:23:27 69° W 05:27:39 10° N visible
